Regional Weather Roundup
Issued by NWS Portland, ME

Current Version | Previous Version | Text Only | Print | Product List | Glossary Off
Versions: 1 2 3 4 5 6 7 8 9 10 11 12 13 14 15 16 17 18 19 20 21 22 23 24 25 26 27 28 29 30 31 32 33 34 35 36 37 38 39 40 41 42 43 44 45 46 47 48 49 50
000 ASUS41 KGYX 161606 RWRGYX WEATHER ROUNDUP FOR MAINE AND NEW HAMPSHIRE NATIONAL WEATHER SERVICE GRAY ME 1200 PM EDT WED AUG 16 2017 MEZ002-005-006-010-012-015-018-020-021-024-026-027-029-161700- MAINE CITY SKY/WX TMP DP RH WIND PRES REMARKS PORTLAND MOSUNNY 81 56 42 W16 29.90F SANFORD MOSUNNY 79 60 52 VRB7 29.92F WISCASSET MOSUNNY 79 56 45 VRB7G17 29.90F ROCKLAND PTSUNNY 77 60 55 W13 29.87F FRYEBURG SUNNY 75 54 47 NW10G18 29.94S LEWISTONAUBURN SUNNY 75 56 51 NW17G25 29.91F AUGUSTA MOSUNNY 75 55 49 NW15G21 29.91S WATERVILLE PTSUNNY 73 59 61 NW9 29.88S BANGOR MOSUNNY 75 53 46 NW15G23 29.88R GREENVILLE N/A 63 45 51 NW15G23 29.91R MILLINOCKET SUNNY 70 47 43 W15G23 29.88S HOULTON MOSUNNY 70 52 52 NW12G18 29.83S PRESQUE ISLE PTSUNNY 66 49 54 NW13G20 29.86F FRENCHVILLE MOSUNNY 61 43 51 NW14G28 29.87R CARIBOU MOSUNNY 66 48 52 NW12G20 29.85S $$ NHZ002-005-008-009-011-012-014-161700- NEW HAMPSHIRE CITY SKY/WX TMP DP RH WIND PRES REMARKS ROCHESTER MOSUNNY 77 58 51 NW12 29.92S NASHUA PTSUNNY 79 60 52 N8G18 29.95S MANCHESTER PTSUNNY 78 55 44 NW14G22 29.93S CONCORD MOSUNNY 77 60 55 NW14 29.95F LACONIA CLOUDY 73 58 59 NW13G18 29.96S PLYMOUTH FAIR 71 56 58 NW9 29.97S BERLIN SUNNY 70 45 40 N10 29.98S WHITEFIELD MOSUNNY 70 50 49 NW12 29.99F JAFFREY PTSUNNY 76 59 55 N6 29.98F KEENE N/A N/A N/A N/A MISG N/A LEBANON CLOUDY 75 59 57 N12 29.98R MT WASHINGTON FOG 41 41 100 NW43G58 N/A VSB 0 $$ VTZ005-007-008-161700- VERMONT CITY SKY/WX TMP DP RH WIND PRES REMARKS ST JOHNSBURY N/A 68 50 52 MISG 29.99F MONTPELIER MOSUNNY 66 54 65 NW10 30.06S BURLINGTON MOSUNNY 71 48 43 NW15 30.04S $$ MAZ007-012-024-CTZ003-RIZ002-NYZ038-NYZ072-161700- SOUTHERN NEW ENGLAND AND NY CITY SKY/WX TMP DP RH WIND PRES REMARKS BOSTON MOSUNNY 82 59 45 NW13G20 29.91S WORCESTER SUNNY 77 56 48 NW16 29.97S NANTUCKET SUNNY 78 66 66 N16 29.91S PROVIDENCE MOSUNNY 83 63 50 N14 29.92F HARTFORD MOSUNNY 82 60 47 NW15 29.95S ALBANY PTSUNNY 77 61 57 VRB5 29.99F NEW YORK CITY MOSUNNY 82 65 56 N8 29.95F $$ ANZ081-ANZ082-ANZ150-NHZ014-MEZ023>029-161700- COASTAL MARINE OBSERVATIONS STATION/POSITION TIME TEMP WIND PRES WAVE AIR SEA DIR/SP/G HT/PER (UTC) (F) (DEG/KT/KT) (MB) (FT/S) MOUNT DESERT ROC 1600 59 1011.4F MATINICUS ROCK 1500 65 280/ 2/ 2 1011.6R ISLE OF SHOALS 1500 74 320/ 9/ 10 1012.7R JEFFREYS LEDGE 1506 67 N/A 2/ 8 CASHES LEDGE BUO 1550 73 68 1012.1F 4/12 GEORGES BANK BUO 1450 65 64 1010.7 9/12 $$ .............KEY.............. WCI - WIND CHILL TC - TEMPERATURE IN CELSIUS VSB - VISIBILITY IN MILES HX - HEAT INDEX FAIR- INDICATES FEW OR NO CLOUDS BELOW 12,000 FT, WITH NO SIGNIFICANT WEATHER AND/OR OBSTRUCTIONS TO VISIBILITY.

USA.gov is the U.S. government's official web portal to all federal, state and local government web resources and services.